Regional Weather Roundup
Issued by NWS Charleston, WV

Home | Current Version | Previous Version | Graphics & Text | Print | Product List | Glossary On
Versions: 1 2 3 4 5 6 7 8 9 10 11 12 13 14 15 16 17 18 19 20 21 22 23 24 25 26 27
000
ASUS41 KRLX 101910
RWRRLX
West Virginia Regional Weather Roundup
National Weather Service Charleston WV
200 PM EST SUN DEC 10 2017

Note: "fair" indicates few or no clouds below 12,000 feet with no
significant weather and/or obstructions to visibility.

WVZ003-102000-
Northern Panhandle of West Virginia

CITY           SKY/WX    TMP DP  RH WIND       PRES   REMARKS
WHEELING       CLOUDY    30  17  58 SW15G24   29.97F
$$

WVZ009-102000-
Northwest West Virginia

CITY           SKY/WX    TMP DP  RH WIND       PRES   REMARKS
PARKERSBURG    PTSUNNY   33  18  53 SW12G20   30.07F
$$

WVZ006-102000-
Western West Virginia

CITY           SKY/WX    TMP DP  RH WIND       PRES   REMARKS
HUNTINGTON     MOSUNNY   37  15  40 SW12      30.08F
$$

WVZ015-102000-
West Central West Virginia

CITY           SKY/WX    TMP DP  RH WIND       PRES   REMARKS
CHARLESTON     PTSUNNY   36  18  48 SW14      30.07F
$$

WVZ022-031-102000-
North Central West Virginia

CITY           SKY/WX    TMP DP  RH WIND       PRES   REMARKS
CLARKSBURG     PTSUNNY   33  18  53 W12G22    30.02F
MORGANTOWN     CLOUDY    32  18  56 SW9       30.00F
$$

WVZ025-035-042-045-102000-
Southern West Virginia

CITY           SKY/WX    TMP DP  RH WIND       PRES   REMARKS
BECKLEY        SUNNY     30  16  56 W12G18    30.02F
LOGAN            N/A     36  18  48 S5G12     30.05F
BLUEFIELD      SUNNY     30  15  53 W16       30.02F
LEWISBURG      MOSUNNY   32  18  57 W12       30.02F
$$

WVZ047-102000-
Northern Mountains of West Virginia

CITY           SKY/WX    TMP DP  RH WIND       PRES   REMARKS
ELKINS         CLOUDY    29  16  58 SW15G22   30.01F
$$

WVZ052-102000-
Eastern Panhandle of West Virginia

CITY           SKY/WX    TMP DP  RH WIND       PRES   REMARKS
MARTINSBURG    MOSUNNY   37  16  42 W22       30.01S
PETERSBURG     PTSUNNY   35  17  47 W12G25    30.03F
$$




USA.gov is the U.S. government's official web portal to all federal, state and local government web resources and services.